Weather History for Two Harbors, MN

Change the Weather History Date:

Saturday, February 9, 2013

  Actual Average Record
Temperature  
Mean Temperature 18 °F -  
Max Temperature 26 °F 24 °F 56 °F (1991)
Min Temperature 10 °F 5 °F -20 °F (1951)
Degree Days  
Heating Degree Days 47    
Moisture  
Dew Point 16 °F    
Average Humidity 79    
Maximum Humidity 86    
Minimum Humidity 68    
Precipitation  
Precipitation 0.00 in - - ()
Sea Level Pressure  
Sea Level Pressure 30.03 in    
Wind  
Wind Speed 3 mph (South)    
Max Wind Speed 12 mph    
Max Gust Speed 17 mph    
Visibility 7 miles    
Events Snow    
Averages and records for this station are not official NWS values.
T = Trace of Precipitation, MM = Missing Value Source: NWS Daily Summary

Daily Weather History Graph

Daily Weather History Graph

Search for Another Location

Airport:

Trip Planner

Search our weather history database for the weather conditions in past years. The results will help you decide how hot, cold, wet, or windy it might be!

Date:

Astronomy

Feb. 09, 2013 Rise Set
Actual Time 7:20 AM CST 5:22 PM CST
Civil Twilight 6:48 AM CST 5:54 PM CST
Nautical Twilight 6:12 AM CST 6:30 PM CST
Astronomical Twilight 5:37 AM CST 7:05 PM CST
Moon 6:31 AM CST (2/9) 5:07 PM CST (2/9)
Length of Visible Light 11h 05m
Length of Day
10h 02m
Waning Crescent, 0% of the Moon is Illuminated
Feb 9
Waning Crescent
Feb 10
New
Feb 17
First Quarter
Feb 25
Full
Mar 4
Last Quarter

Hourly Weather History & Observations

Time (CST) Temp. Windchill Dew Point Humidity Pressure Visibility Wind Dir Wind Speed Gust Speed Precip Events Conditions
12:11 AM 12.2 °F - 8.6 °F 85% 30.22 in 10.0 mi Calm Calm - N/A   Scattered Clouds
12:52 AM 14.0 °F - 8.6 °F 79% 30.20 in 10.0 mi Calm Calm - N/A   Mostly Cloudy
1:11 AM 12.2 °F - 8.6 °F 85% 30.19 in 10.0 mi Calm Calm - N/A   Scattered Clouds
1:31 AM 10.4 °F - 6.8 °F 85% 30.18 in 10.0 mi Calm Calm - N/A   Clear
1:52 AM 12.2 °F - 8.6 °F 85% 30.18 in 10.0 mi Calm Calm - N/A   Mostly Cloudy
2:11 AM 12.2 °F - 6.8 °F 79% 30.17 in 10.0 mi Calm Calm - N/A   Scattered Clouds
2:31 AM 12.2 °F - 8.6 °F 85% 30.17 in 10.0 mi Calm Calm - N/A   Scattered Clouds
2:52 AM 12.2 °F - 6.8 °F 79% 30.16 in 10.0 mi Calm Calm - N/A   Mostly Cloudy
3:11 AM 14.0 °F 6.5 °F 6.8 °F 73% 30.14 in 10.0 mi SE 4.6 mph - N/A   Scattered Clouds
3:31 AM 17.6 °F 10.7 °F 8.6 °F 68% 30.14 in 10.0 mi South 4.6 mph - N/A   Mostly Cloudy
3:52 AM 17.6 °F 12.3 °F 10.4 °F 73% 30.13 in 10.0 mi SE 3.5 mph - N/A   Overcast
4:11 AM 17.6 °F 9.3 °F 10.4 °F 73% 30.12 in 10.0 mi SSE 5.8 mph - N/A   Mostly Cloudy
4:31 AM 17.6 °F 7.3 °F 10.4 °F 73% 30.12 in 10.0 mi South 8.1 mph - N/A   Overcast
4:52 AM 17.6 °F 8.2 °F 10.4 °F 73% 30.11 in 10.0 mi SSE 6.9 mph - N/A   Overcast
5:11 AM 17.6 °F 10.7 °F 10.4 °F 73% 30.10 in 10.0 mi South 4.6 mph - N/A   Overcast
5:31 AM 17.6 °F 10.7 °F 10.4 °F 73% 30.09 in 10.0 mi SSE 4.6 mph - N/A   Overcast
5:51 AM 17.6 °F 10.7 °F 10.4 °F 73% 30.10 in 10.0 mi South 4.6 mph - N/A   Overcast
6:12 AM 17.6 °F 8.2 °F 10.4 °F 73% 30.09 in 10.0 mi SSE 6.9 mph - N/A   Overcast
6:31 AM 17.6 °F 10.7 °F 10.4 °F 73% 30.09 in 10.0 mi South 4.6 mph - N/A   Overcast
6:51 AM 17.6 °F 10.7 °F 10.4 °F 73% 30.08 in 10.0 mi South 4.6 mph - N/A   Overcast
7:12 AM 17.6 °F 9.3 °F 12.2 °F 79% 30.07 in 10.0 mi South 5.8 mph - N/A   Overcast
7:31 AM 17.6 °F 8.2 °F 12.2 °F 79% 30.07 in 10.0 mi SSE 6.9 mph - N/A   Overcast
7:51 AM 19.4 °F 10.4 °F 12.2 °F 74% 30.07 in 10.0 mi South 6.9 mph - N/A   Overcast
8:11 AM 19.4 °F 11.5 °F 12.2 °F 74% 30.06 in 10.0 mi South 5.8 mph - N/A   Overcast
8:31 AM 19.4 °F 11.5 °F 12.2 °F 74% 30.05 in 10.0 mi South 5.8 mph - N/A   Overcast
8:52 AM 19.4 °F 8.6 °F 14.0 °F 80% 30.05 in 10.0 mi South 9.2 mph - N/A   Overcast
9:11 AM 19.4 °F 11.5 °F 14.0 °F 80% 30.05 in 10.0 mi South 5.8 mph - N/A Snow Light Snow
9:32 AM 19.4 °F 12.8 °F 15.8 °F 86% 30.05 in 7.0 mi SSW 4.6 mph - N/A   Overcast
9:51 AM 19.4 °F 12.8 °F 15.8 °F 86% 30.05 in 7.0 mi SSW 4.6 mph - N/A   Overcast
10:11 AM 21.2 °F 11.7 °F 15.8 °F 80% 30.05 in 7.0 mi South 8.1 mph - N/A   Overcast
10:31 AM 21.2 °F 13.6 °F 15.8 °F 80% 30.05 in 7.0 mi SSW 5.8 mph - N/A   Overcast
10:51 AM 21.2 °F 10.9 °F 15.8 °F 80% 30.04 in 7.0 mi SSW 9.2 mph - N/A   Overcast
11:12 AM 21.2 °F 10.1 °F 15.8 °F 80% 30.03 in 7.0 mi SSW 10.4 mph 17.3 mph N/A   Overcast
11:31 AM 21.2 °F 9.5 °F 15.8 °F 80% 30.03 in 7.0 mi SSW 11.5 mph - N/A   Overcast
11:51 AM 21.2 °F 10.1 °F 17.6 °F 86% 30.02 in 5.0 mi SSW 10.4 mph - N/A   Haze
12:12 PM 21.2 °F 10.9 °F 17.6 °F 86% 30.01 in 5.0 mi SSW 9.2 mph - N/A   Haze
12:31 PM 23.0 °F 15.8 °F 17.6 °F 80% 30.01 in 5.0 mi SSW 5.8 mph - N/A   Haze
12:51 PM 23.0 °F 13.1 °F 17.6 °F 80% 30.00 in 5.0 mi SSW 9.2 mph - N/A   Haze
1:31 PM 24.8 °F 17.9 °F 17.6 °F 74% 29.99 in 5.0 mi SW 5.8 mph - N/A   Haze
1:51 PM 24.8 °F 16.9 °F 17.6 °F 74% 29.99 in 5.0 mi SSW 6.9 mph - N/A   Haze
2:12 PM 24.8 °F 17.9 °F 19.4 °F 80% 29.98 in 5.0 mi SSW 5.8 mph - N/A   Haze
2:31 PM 24.8 °F 20.5 °F 19.4 °F 80% 29.97 in 5.0 mi SSW 3.5 mph - N/A   Haze
2:51 PM 24.8 °F 20.5 °F 19.4 °F 80% 29.97 in 5.0 mi SSW 3.5 mph - N/A   Haze
3:12 PM 24.8 °F 19.1 °F 19.4 °F 80% 29.97 in 5.0 mi South 4.6 mph - N/A   Haze
3:31 PM 24.8 °F 20.5 °F 19.4 °F 80% 29.97 in 7.0 mi SSW 3.5 mph - N/A   Overcast
3:51 PM 24.8 °F 20.5 °F 19.4 °F 80% 29.96 in 5.0 mi South 3.5 mph - N/A   Haze
4:12 PM 24.8 °F - 19.4 °F 80% 29.96 in 5.0 mi Calm Calm - N/A   Haze
4:31 PM 26.6 °F - 19.4 °F 74% 29.96 in 5.0 mi Calm Calm - N/A   Haze
4:51 PM 24.8 °F - 19.4 °F 80% 29.96 in 5.0 mi Calm Calm - N/A   Haze
5:12 PM 24.8 °F - 19.4 °F 80% 29.96 in 5.0 mi Calm Calm - N/A   Haze
5:31 PM 26.6 °F - 21.2 °F 80% 29.96 in 5.0 mi Calm Calm - N/A   Haze
5:51 PM 26.6 °F - 21.2 °F 80% 29.96 in 5.0 mi Calm Calm - N/A   Haze
6:11 PM 24.8 °F - 19.4 °F 80% 29.96 in 5.0 mi Calm Calm - N/A   Haze
6:31 PM 24.8 °F - 19.4 °F 80% 29.97 in 4.0 mi Calm Calm - N/A   Haze
6:51 PM 24.8 °F - 19.4 °F 80% 29.97 in 5.0 mi Calm Calm - N/A   Haze
7:11 PM 24.8 °F - 19.4 °F 80% 29.97 in 4.0 mi Calm Calm - N/A   Haze
7:31 PM 24.8 °F - 19.4 °F 80% 29.96 in 3.0 mi Calm Calm - N/A   Haze
7:51 PM 24.8 °F - 19.4 °F 80% 29.96 in 3.0 mi Calm Calm - N/A   Overcast
8:11 PM 26.6 °F - 21.2 °F 80% 29.96 in 2.5 mi Calm Calm - N/A   Overcast
8:31 PM 26.6 °F 22.6 °F 21.2 °F 80% 29.96 in 2.0 mi South 3.5 mph - N/A   Haze
8:51 PM 26.6 °F 20.0 °F 21.2 °F 80% 29.97 in 2.5 mi South 5.8 mph - N/A   Haze
9:11 PM 26.6 °F 21.2 °F 21.2 °F 80% 29.96 in 2.5 mi South 4.6 mph - N/A   Haze
9:31 PM 26.6 °F 20.0 °F 21.2 °F 80% 29.96 in 2.5 mi South 5.8 mph - N/A   Haze
9:51 PM 26.6 °F 20.0 °F 21.2 °F 80% 29.96 in 2.5 mi South 5.8 mph - N/A   Haze
10:12 PM 26.6 °F 22.6 °F 21.2 °F 80% 29.95 in 2.5 mi South 3.5 mph - N/A   Haze
10:31 PM 26.6 °F - 21.2 °F 80% 29.95 in 2.5 mi Calm Calm - N/A   Haze
10:51 PM 24.8 °F 17.9 °F 19.4 °F 80% 29.95 in 2.5 mi South 5.8 mph - N/A   Haze
11:12 PM 24.8 °F 16.9 °F 19.4 °F 80% 29.96 in 3.0 mi South 6.9 mph - N/A   Haze
11:31 PM 24.8 °F 19.1 °F 19.4 °F 80% 29.96 in 3.0 mi South 4.6 mph - N/A   Haze
11:51 PM 24.8 °F 19.1 °F 19.4 °F 80% 29.96 in 3.0 mi South 4.6 mph - N/A   Haze